Regional Weather Roundup
Issued by NWS State College, PA

Home | Current Version | Previous Version | Text Only | Print | Product List | Glossary Off
Versions: 1 2 3 4 5 6 7 8 9 10 11 12 13 14 15 16 17 18 19 20 21 22 23 24 25 26 27 28 29 30 31 32 33 34 35 36 37 38 39 40 41 42 43 44 45 46 47 48 49 50

000
ASUS41 KCTP 110203
RWRCTP

REGIONAL WEATHER ROUNDUP
NATIONAL WEATHER SERVICE STATE COLLEGE PA
1000 PM EDT THU JUL 10 2014

Note: "fair" indicates few or no clouds below 12,000 feet with no
significant weather and/or obstructions to visibility.

* = STATION THAT DOES NOT REPORT PRECIPITATION /E.G. RAIN...SNOW...ETC/
    THUNDER OR FOG.

PAZ002>004-007>009-013>016-020>023-029>032-110300-
WESTERN PENNSYLVANIA

CITY           SKY/WX    TMP DP  RH WIND       PRES   REMARKS
ERIE           CLEAR     66  51  58 SE3       30.17R
MEADVILLE      MOCLDY    64  54  69 NE5       30.19R
FRANKLIN*      CLEAR     63  52  67 N7        30.20R
NEW CASTLE     NOT AVBL
BEAVER COUNTY  NOT AVBL
BUTLER*        CLEAR     66  55  68 CALM      30.17R
PITTSBURGH INT PTCLDY    74  57  55 NE5       30.14R
PITTSBURGH     MOCLDY    73  54  51 CALM      30.14R
INDIANA*       MOCLDY    68  59  73 CALM      30.20R
LATROBE        CLEAR     70  63  78 CALM      30.15R
WASHINGTON CO* CLEAR     63  57  82 CALM      30.15R
$$

PAZ004>006-010>012-017>019-024>028-033>037-041-042-045-046-049>053-110300-
CENTRAL PENNSYLVANIA

CITY           SKY/WX    TMP DP  RH WIND       PRES   REMARKS
BRADFORD       CLEAR     63  52  67 NE3       30.21R
DUBOIS         CLEAR     67  56  67 E3        30.18R
CLEARFIELD     CLEAR     66  62  87 N3        30.18R
JOHNSTOWN      PTCLDY    64  56  75 E3        30.19R
ALTOONA        PTCLDY    66  62  87 CALM      30.18R
STATE COLLEGE  CLEAR     68  61  79 CALM      30.17R
WILLIAMSPORT   MOCLDY    70  61  73 N5        30.15R
SELINSGROVE    PTCLDY    68  66  93 CALM      30.14R
FT INDIANTOWN  CLOUDY    68  68 100 CALM      30.13R
CAPITAL CITY   MOCLDY    70  64  81 NW3       30.13R
HARRISBURG     MOCLDY    70  61  73 NW5       30.12R
YORK           MOCLDY    65  64  97 W3        30.13R
$$

PAZ038>040-043-044-047-048-054-055-060>062-067>071-110300-
EASTERN PENNSYLVANIA

CITY           SKY/WX    TMP DP  RH WIND       PRES   REMARKS
SCRANTON       PTCLDY    69  58  67 E3        30.17R
MOUNT POCONO   MOCLDY    62  59  90 N3        30.20R
ALLENTOWN      CLOUDY    70  65  84 NE3       30.13R
QUAKERTOWN*    MOCLDY    68  64  88 CALM      30.14R
READING        LGT RAIN  74  64  71 NE6       30.11R
LANCASTER      LGT RAIN  68  65  90 S3        30.13R
COATESVILLE    LGT RAIN  68  64  88 N7        30.17R
POTTSTOWN      CLOUDY    72  63  73 E7        30.14R
BLUE BELL      MOCLDY    73  63  68 NE3       30.12R
DOYLESTOWN     MOCLDY    70  63  78 CALM      30.13R
WILLOW GROVE   NOT AVBL
NORTH PHILA    MOCLDY    76  62  62 E7        30.13R
PHILADELPHIA   CLOUDY    75  63  66 SE8       30.12R
$$


USA.gov is the U.S. government's official web portal to all federal, state and local government web resources and services.